Location: Enborne
(51.3833°N, 1.3667°W)
Time: 17:41:06
(UTC+00:00)

Cosmos 1844 Rocket - Pass Details

Date: 19 January 2021
Orbit: 826 x 843 km, 71.0° (Epoch: 06 March)

Event Time Altitude Azimuth Distance (km) Brightness Sun altitude
Rises 18:25:32 0° 183° (S) 3,388 6.0 -17.0°
Reaches altitude 10° 18:28:06 10° 176° (S) 2,457 5.2 -17.4°
Maximum altitude 18:33:19 40° 109° (ESE) 1,225 3.1 -18.2°
Enters shadow 18:35:02 32° 70° (ENE) 1,413 3.3 -18.5°
